Weather in Grachi

Russia / Astrakhan Oblast     47°47′44″N   46°16′31″E
temp.,
°C
wind,
m/s
gust,
m/s
humid.,
%
clouds,
%
prec.,
mm/h
press.,
hPa
HPBL,
m
20 september, mon
mon2001:00+13ese4126372 0.0 1018287
04:00+13ese51162100 0.0 1017288
07:00+15ese51148100 0.0 1016425
10:00+17ese5840100 0.0 1016442
13:00+19se6747100 0.0 1015492
16:00+24s453478 0.0 10141419
19:00+21sse44440 0.0 101344
22:00+20ssw6125719 0.3 1014275
21 september, tue
tue2101:00+17ssw467211 0.3 101494
04:00+16sw357340 0.8 101478
07:00+16ssw4583100 0.0 101581
10:00+22sw455480 0.1 1015495
13:00+25ssw5639100 0.0 10131307
16:00+23ssw5646100 0.0 10131088
19:00+17n3487100 1.3 1013198
22:00+17nnw3589100 1.4 1013259
22 september, wed
wed2201:00+16n2291100 1.1 1012163
04:00+16w3492100 6.3 1013321
07:00+15w228912 0.0 101342
10:00+18wsw3367100 0.0 1014698
13:00+20wsw3453100 0.0 10131136
16:00+20w3346100 0.0 1013987
19:00+15wnw3474100 1.1 1015299
22:00+13s1187100 4.6 1015128
23 september, thu
thu2301:00+14e1191100 2.9 1015153
04:00+14n2293100 8.6 1015196
07:00+14n449292 1.4 1014222
10:00+17e237493 1.4 1015539
13:00+20e4449100 0.0 10131206
16:00+22ne5642100 0.0 10121511
19:00+19ne4844100 0.0 1011244
22:00+17ene5953100 0.0 1010222
24 september, fri
fri2401:00+17ene51145100 0.0 1008292
04:00+18se41048100 0.0 1007381
07:00+17ese4755100 0.0 1008242
10:00+19se5652100 0.0 1008623
13:00+20w3248100 0.0 1008796
16:00+18nw6756100 0.0 1009598
19:00+16nw6868100 0.0 1011499
22:00+15wnw51072100 0.0 1012497